sat.trackr.live / text

‹ back to catalog

STARLINK-32366

NORAD 61551 · 2024-184V

PAYLOAD ACTIVE UNKNOWN

§ Identity

Operator
Country
US
Launch date
2024-10-15
Launch site
AFWTR
Launch vehicle
Mass (kg)
RCS (m²)

Purposes: comms

External: N2YO · Heavens-Above · Gunter

§ Orbital elements

Epoch: 2026-05-25T00:33:47.680992Z

Period
93.85 min
Inclination
53.1614°
Eccentricity
0.0000883
Mean motion
15.34389223 rev/d
Perigee alt
462.1 km
Apogee alt
463.3 km
Semi-major
6,840.9 km
B*
5.1673e-5
RAAN
19.4062°
Arg perigee
94.3551°
Mean anomaly
265.7553°
Rev number
9,019

§ Raw data

STARLINK-323661 61551U 24184V   26145.02346853  .00001370  00000+0  51673-4 0  99922 61551  53.1614  19.4062 0000883  94.3551 265.7553 15.34389223 90190

JSON: /api/v1/satellites/61551 · /tle

For live sub-satellite position, see the globe view (requires WebGL).

§ Visibility from observer

Set your observer location to see the next 7 days of passes ≥ 10°. The values pass through the URL so the page stays shareable.

No JS? Fill the form by hand. The geolocation button needs JavaScript.